Time,TemperatureF,DewpointF,PressureIn,WindDirection,WindDirectionDegrees,WindSpeedMPH,WindSpeedGustMPH,Humidity,HourlyPrecipIn,Conditions,Clouds,dailyrainin,SoftwareType,DateUTC
2013-01-19 00:11:00,28.4,27.9,30.27,ENE,67,0.0,-999.0,98,-99.99,,,0.00,Acu-Link.com,2013-01-19 05:11:00,
2013-01-19 00:26:00,28.4,27.9,30.26,ENE,67,0.0,-999.0,98,-99.99,,,0.00,Acu-Link.com,2013-01-19 05:26:00,
2013-01-19 00:42:00,28.4,27.9,30.26,ENE,67,1.1,-999.0,98,-99.99,,,0.00,Acu-Link.com,2013-01-19 05:42:00,
2013-01-19 00:57:00,28.4,28.2,30.26,ENE,67,0.0,-999.0,99,-99.99,,,0.00,Acu-Link.com,2013-01-19 05:57:00,
2013-01-19 01:12:00,28.4,28.2,30.25,ENE,67,0.0,-999.0,99,-99.99,,,0.00,Acu-Link.com,2013-01-19 06:12:00,
2013-01-19 01:28:00,28.4,28.2,30.25,ENE,67,0.0,-999.0,99,-99.99,,,0.00,Acu-Link.com,2013-01-19 06:28:00,
2013-01-19 01:43:00,28.4,28.2,30.25,ENE,67,0.0,-999.0,99,-99.99,,,0.00,Acu-Link.com,2013-01-19 06:43:00,
2013-01-19 01:58:00,28.4,28.2,30.25,ENE,67,1.1,-999.0,99,-99.99,,,0.00,Acu-Link.com,2013-01-19 06:58:00,
2013-01-19 02:13:00,28.4,28.2,30.25,NE,45,0.0,-999.0,99,-99.99,,,0.00,Acu-Link.com,2013-01-19 07:13:00,
2013-01-19 02:29:00,26.6,26.4,30.25,NE,45,0.0,-999.0,99,-99.99,,,0.00,Acu-Link.com,2013-01-19 07:29:00,
2013-01-19 02:44:00,26.6,26.4,30.25,NE,45,0.0,-999.0,99,-99.99,,,0.00,Acu-Link.com,2013-01-19 07:44:00,
2013-01-19 02:59:00,26.6,26.4,30.24,NE,45,0.0,-999.0,99,-99.99,,,0.00,Acu-Link.com,2013-01-19 07:59:00,
2013-01-19 03:15:00,26.6,26.4,30.25,NE,45,0.0,-999.0,99,-99.99,,,0.00,Acu-Link.com,2013-01-19 08:15:00,
2013-01-19 03:30:00,26.6,26.4,30.26,NE,45,0.0,-999.0,99,-99.99,,,0.00,Acu-Link.com,2013-01-19 08:30:00,
2013-01-19 03:45:00,26.6,26.4,30.25,NE,45,0.0,-999.0,99,-99.99,,,0.00,Acu-Link.com,2013-01-19 08:45:00,
2013-01-19 04:01:00,26.6,26.4,30.25,NE,45,0.0,-999.0,99,-99.99,,,0.00,Acu-Link.com,2013-01-19 09:01:00,
2013-01-19 04:35:00,26.6,26.4,30.25,NE,45,0.0,-999.0,99,-99.99,,,0.00,Acu-Link.com,2013-01-19 09:35:00,
2013-01-19 04:50:00,26.6,26.4,30.25,NE,45,1.6,-999.0,99,-99.99,,,0.00,Acu-Link.com,2013-01-19 09:50:00,
2013-01-19 05:05:00,28.4,28.2,30.25,NE,45,0.0,-999.0,99,-99.99,,,0.00,Acu-Link.com,2013-01-19 10:05:00,
2013-01-19 05:21:00,28.4,28.2,30.25,NE,45,0.0,-999.0,99,-99.99,,,0.00,Acu-Link.com,2013-01-19 10:21:00,
2013-01-19 05:36:00,26.6,26.4,30.25,NE,45,0.0,-999.0,99,-99.99,,,0.00,Acu-Link.com,2013-01-19 10:36:00,
2013-01-19 05:51:00,26.6,26.4,30.25,NE,45,0.0,-999.0,99,-99.99,,,0.00,Acu-Link.com,2013-01-19 10:51:00,
2013-01-19 07:56:00,26.6,26.4,30.24,East,90,0.0,-999.0,99,-99.99,,,0.00,Acu-Link.com,2013-01-19 12:56:00,
2013-01-19 08:11:00,26.6,26.4,30.24,NE,45,0.0,-999.0,99,-99.99,,,0.00,Acu-Link.com,2013-01-19 13:11:00,
2013-01-19 08:27:00,28.4,28.2,30.23,NE,45,0.0,-999.0,99,-99.99,,,0.00,Acu-Link.com,2013-01-19 13:27:00,
2013-01-19 08:42:00,32.0,31.8,30.23,NE,45,0.0,-999.0,99,-99.99,,,0.00,Acu-Link.com,2013-01-19 13:42:00,
2013-01-19 08:57:00,32.0,31.8,30.23,ENE,67,2.0,-999.0,99,-99.99,,,0.00,Acu-Link.com,2013-01-19 13:57:00,
2013-01-19 09:13:00,33.8,33.3,30.23,West,270,2.7,-999.0,98,-99.99,,,0.00,Acu-Link.com,2013-01-19 14:13:00,
2013-01-19 09:28:00,37.4,28.2,30.23,South,180,3.6,-999.0,69,-99.99,,,0.00,Acu-Link.com,2013-01-19 14:28:00,
2013-01-19 09:43:00,41.0,29.0,30.23,SW,225,5.1,-999.0,62,-99.99,,,0.00,Acu-Link.com,2013-01-19 14:43:00,
2013-01-19 09:58:00,42.8,29.9,30.24,South,180,3.1,-999.0,60,-99.99,,,0.00,Acu-Link.com,2013-01-19 14:58:00,
2013-01-19 10:14:00,42.8,27.8,30.23,South,180,3.1,-999.0,55,-99.99,,,0.00,Acu-Link.com,2013-01-19 15:14:00,
2013-01-19 10:29:00,42.8,28.6,30.22,South,180,4.7,-999.0,57,-99.99,,,0.00,Acu-Link.com,2013-01-19 15:29:00,
2013-01-19 10:44:00,42.8,27.3,30.22,SSW,202,4.0,-999.0,54,-99.99,,,0.00,Acu-Link.com,2013-01-19 15:44:00,
2013-01-19 11:00:00,44.6,28.5,30.21,South,180,5.1,-999.0,53,-99.99,,,0.00,Acu-Link.com,2013-01-19 16:00:00,
2013-01-19 11:15:00,44.6,29.0,30.20,South,180,4.7,-999.0,54,-99.99,,,0.00,Acu-Link.com,2013-01-19 16:15:00,
2013-01-19 11:30:00,44.6,27.1,30.19,South,180,5.6,-999.0,50,-99.99,,,0.00,Acu-Link.com,2013-01-19 16:30:00,
2013-01-19 11:46:00,44.6,27.1,30.18,South,180,4.7,-999.0,50,-99.99,,,0.00,Acu-Link.com,2013-01-19 16:46:00,
2013-01-19 12:01:00,46.4,28.3,30.16,SSW,202,4.0,-999.0,49,-99.99,,,0.00,Acu-Link.com,2013-01-19 17:01:00,
2013-01-19 12:16:00,46.4,27.8,30.15,South,180,4.7,-999.0,48,-99.99,,,0.00,Acu-Link.com,2013-01-19 17:16:00,
2013-01-19 12:47:00,50.0,30.0,30.13,WNW,292,2.0,-999.0,46,-99.99,,,0.00,Acu-Link.com,2013-01-19 17:47:00,
2013-01-19 13:02:00,51.8,33.3,30.11,West,270,2.7,-999.0,49,-99.99,,,0.00,Acu-Link.com,2013-01-19 18:02:00,
2013-01-19 13:33:00,51.8,31.1,30.09,South,180,3.6,-999.0,45,-99.99,,,0.00,Acu-Link.com,2013-01-19 18:33:00,
2013-01-19 13:48:00,51.8,28.3,30.07,SE,135,4.7,-999.0,40,-99.99,,,0.00,Acu-Link.com,2013-01-19 18:48:00,
2013-01-19 14:03:00,53.6,31.7,30.07,SSW,202,3.6,-999.0,43,-99.99,,,0.00,Acu-Link.com,2013-01-19 19:03:00,
2013-01-19 14:19:00,53.6,29.9,30.06,South,180,3.6,-999.0,40,-99.99,,,0.00,Acu-Link.com,2013-01-19 19:19:00,
2013-01-19 15:05:00,53.6,28.6,30.04,ENE,67,5.6,-999.0,38,-99.99,,,0.00,Acu-Link.com,2013-01-19 20:05:00,
2013-01-19 15:35:00,53.6,29.9,30.02,SW,225,4.0,-999.0,40,-99.99,,,0.00,Acu-Link.com,2013-01-19 20:35:00,
2013-01-19 16:21:00,51.8,30.6,30.00,South,180,2.0,-999.0,44,-99.99,,,0.00,Acu-Link.com,2013-01-19 21:21:00,
2013-01-19 16:37:00,51.8,28.3,30.00,SSE,157,4.7,-999.0,40,-99.99,,,0.00,Acu-Link.com,2013-01-19 21:37:00,
2013-01-19 17:07:00,50.0,28.4,30.00,SSE,157,1.1,-999.0,43,-99.99,,,0.00,Acu-Link.com,2013-01-19 22:07:00,
2013-01-19 17:23:00,50.0,29.0,30.00,South,180,1.1,-999.0,44,-99.99,,,0.00,Acu-Link.com,2013-01-19 22:23:00,
2013-01-19 17:38:00,46.4,27.3,29.99,West,270,0.0,-999.0,47,-99.99,,,0.00,Acu-Link.com,2013-01-19 22:38:00,
2013-01-19 18:24:00,42.8,30.7,29.99,NNE,22,2.0,-999.0,62,-99.99,,,0.00,Acu-Link.com,2013-01-19 23:24:00,
2013-01-19 18:39:00,42.8,31.1,30.00,NNE,22,0.0,-999.0,63,-99.99,,,0.00,Acu-Link.com,2013-01-19 23:39:00,
2013-01-19 18:54:00,41.0,30.5,30.00,North,0,1.1,-999.0,66,-99.99,,,0.00,Acu-Link.com,2013-01-19 23:54:00,
2013-01-19 19:10:00,41.0,31.3,30.00,North,0,1.6,-999.0,68,-99.99,,,0.00,Acu-Link.com,2013-01-20 00:10:00,
2013-01-19 19:25:00,41.0,31.6,30.00,North,0,0.0,-999.0,69,-99.99,,,0.00,Acu-Link.com,2013-01-20 00:25:00,
2013-01-19 19:55:00,41.0,32.0,30.00,SSW,202,1.1,-999.0,70,-99.99,,,0.00,Acu-Link.com,2013-01-20 00:55:00,
2013-01-19 20:11:00,41.0,31.6,30.00,SW,225,1.1,-999.0,69,-99.99,,,0.00,Acu-Link.com,2013-01-20 01:11:00,
2013-01-19 20:56:00,42.8,33.3,29.99,SSW,202,1.1,-999.0,69,-99.99,,,0.00,Acu-Link.com,2013-01-20 01:56:00,
2013-01-19 21:12:00,42.8,33.0,29.98,WNW,292,1.6,-999.0,68,-99.99,,,0.00,Acu-Link.com,2013-01-20 02:12:00,
2013-01-19 21:42:00,42.8,32.2,29.97,WSW,247,5.1,-999.0,66,-99.99,,,0.00,Acu-Link.com,2013-01-20 02:42:00,
2013-01-19 21:58:00,42.8,31.5,29.96,SSW,202,3.1,-999.0,64,-99.99,,,0.00,Acu-Link.com,2013-01-20 02:58:00,
2013-01-19 22:44:00,42.8,31.9,29.97,West,270,0.0,-999.0,65,-99.99,,,0.00,Acu-Link.com,2013-01-20 03:44:00,
2013-01-19 22:59:00,41.0,31.3,29.96,West,270,0.0,-999.0,68,-99.99,,,0.00,Acu-Link.com,2013-01-20 03:59:00,
2013-01-19 23:14:00,41.0,32.3,29.95,West,270,2.0,-999.0,71,-99.99,,,0.00,Acu-Link.com,2013-01-20 04:14:00,
2013-01-19 23:30:00,42.8,32.2,29.94,SE,135,1.6,-999.0,66,-99.99,,,0.00,Acu-Link.com,2013-01-20 04:30:00,
2013-01-19 23:45:00,42.8,32.2,29.94,SSE,157,5.1,-999.0,66,-99.99,,,0.00,Acu-Link.com,2013-01-20 04:45:00,